Vorticity
1 2 11 5 4 6 7 5 3 4 4 3 2 2 2 2 2 2 2 2 3 3 4 3 4 4 3 5 7 6 6 5 4 3 3 2 2 2 2 2 2 3 3
-29 48 0 16 6 5 5 7 7 4 5 5 5 3 3 2 2 2 1 2 2 3 4 3 4 3 3 3 4 7 6 5 4 3 2 1 1 2 2 2 1 3 5
-34 6 26 -4 5 7 6 5 5 6 5 4 4 6 4 4 4 3 3 3 3 2 4 3 3 4 4 3 3 3 6 6 4 3 3 2 1 1 2 3 3 3 3
8 10 3 8 15 48 -11 14 6 3 6 6 4 3 4 4 4 4 4 4 4 3 2 3 3 4 5 3 4 3 2 3 5 5 4 3 3 2 2 2 2 2 2
8 -0 2 -7 44 37 17 13 8 11 -1 4 6 5 3 4 4 4 4 4 4 4 4 5 3 3 3 4 5 4 3 3 2 3 3 4 3 3 3 3 2 2 2
9 9 6 10 -1 1 17 -7 14 11 -11 9 4 4 2 3 5 3 3 4 4 4 4 4 4 3 3 3 3 4 3 3 3 2 3 3 4 4 4 3 4 3 4
23 18 16 12 5 9 10 -14 -15 50 39 -28 -9 23 14 3 3 2 1 6 5 5 4 4 4 4 4 3 3 3 2 5 3 6 3 -6 1 2 8 7 -1 3 5
8 10 10 15 17 17 9 -4 13 1 10 -7 4 42 -1 -7 -1 9 3 4 1 4 5 4 3 3 3 3 4 4 4 4 4 3 2 6 9 4 1 5 2 10 5
8 8 7 6 6 6 14 22 16 6 -4 -15 18 6 6 48 4 7 -2 -2 12 7 5 4 5 5 4 4 2 5 4 4 5 7 3 6 6 2 7 5 6 -6 8
16 16 13 12 12 5 3 5 6 3 17 16 -1 -14 19 2 -17 40 15 19 -4 -1 -1 6 9 6 4 3 2 7 6 3 4 8 7 5 8 2 -3 2 -3 16 10
5 5 7 9 8 14 14 10 4 4 2 2 22 16 -0 -33 16 0 -1 -2 -5 35 33 11 14 11 7 5 8 5 5 13 -0 -8 -24 -21 -14 -36 14 10 1 -4 2
7 9 11 10 7 9 15 21 21 11 3 3 6 3 29 -3 -20 41 7 11 19 18 42 22 -5 -1 -6 1 -0 11 11 4 -4 24 10 19 36 11 6 15 12 19 21
9 9 5 8 11 9 5 8 13 31 25 9 5 6 12 14 9 -22 8 12 1 15 26 36 32 22 28 42 15 -6 -5 -7 12 8 4 12 4 1 4 11 11 21 19
6 4 7 8 5 6 8 6 6 9 19 33 21 7 18 11 39 40 15 -33 10 -6 -2 -11 -17 -4 7 6 38 37 24 0 0 21 5 -2 2 14 20 20 15 17 12
6 6 5 12 9 9 7 9 8 7 8 14 15 24 17 7 19 14 29 30 -7 -17 10 10 12 14 7 10 16 8 6 0 9 4 -2 -0 13 13 20 12 14 17 12
14 15 12 10 9 8 11 12 11 11 11 8 12 18 35 2 3 -0 -9 4 11 20 25 16 20 19 4 1 15 19 19 17 21 0 -10 11 18 14 16 17 12 8 7
14 12 9 14 12 12 15 13 12 8 12 9 9 11 18 9 17 14 20 13 18 27 -13 -9 10 15 24 32 22 13 16 18 9 15 21 22 17 19 16 7 8 7 10
14 12 13 15 17 16 10 11 9 9 11 19 10 1 -33 27 24 19 10 8 13 29 9 11 -6 -0 16 12 7 9 10 12 14 18 8 14 14 8 6 7 12 5 4
17 11 7 14 10 6 8 11 13 13 14 18 15 9 8 31 13 24 21 13 18 12 32 32 36 9 27 4 17 18 14 17 16 16 10 12 4 7 12 8 5 6 4
4 6 15 29 24 25 15 10 14 17 17 12 12 6 -0 -19 2 20 -11 12 20 17 -3 5 2 -3 -1 9 -6 9 7 11 8 8 13 5 9 10 6 5 4 6 6
5 -4 14 3 21 21 23 26 17 9 20 9 10 25 23 9 40 -30 3 7 14 -10 -6 15 2 6 15 24 5 10 11 5 12 13 10 12 5 4 3 4 5 5 5
4 10 17 13 11 26 22 20 10 8 13 16 25 18 5 29 33 15 2 18 -15 19 1 -10 3 16 17 6 12 8 12 16 6 14 8 3 4 5 5 4 4 2 4
7 8 17 26 14 23 20 17 14 19 17 21 -7 15 25 33 10 17 21 1 34 11 24 27 23 12 7 12 9 15 8 14 13 4 4 5 6 3 2 5 0 1 3
10 14 31 -2 15 16 28 29 31 11 24 20 -4 21 5 7 17 1 19 17 7 10 16 17 4 9 9 14 11 9 11 8 5 5 5 4 2 2 4 1 4 4 7
13 25 20 13 7 2 20 0 19 -2 10 28 -9 12 6 7 15 14 20 33 18 10 9 10 8 14 21 9 16 16 2 4 5 6 4 2 2 4 3 2 3 9 10
19 17 19 16 9 -4 14 9 18 1 -0 9 7 27 21 30 38 23 5 4 5 10 13 10 18 11 10 16 4 4 5 6 5 5 2 3 4 4 4 1 8 14 18
Height
5794 5795 5798 5800 5802 5805 5807 5810 5812 5814 5816 5818 5820 5821 5823 5824 5825 5827 5828 5829 5830 5830 5831 5831 5831 5831 5831 5832 5832 5832 5831 5830 5830 5830 5830 5829 5828 5827 5826 5825 5824 5823 5822
5782 5787 5790 5792 5794 5797 5799 5801 5805 5807 5808 5810 5812 5814 5816 5817 5818 5820 5822 5822 5823 5824 5825 5826 5826 5825 5825 5826 5826 5826 5825 5825 5825 5824 5823 5822 5822 5821 5820 5819 5817 5816 5814
5764 5772 5777 5782 5786 5788 5790 5792 5795 5798 5801 5801 5803 5805 5807 5810 5812 5813 5814 5815 5816 5817 5818 5819 5820 5820 5819 5819 5819 5819 5819 5819 5818 5817 5816 5815 5815 5813 5812 5811 5809 5807 5805
5761 5764 5765 5772 5777 5773 5779 5782 5786 5787 5791 5793 5794 5795 5798 5799 5803 5805 5807 5808 5809 5810 5810 5812 5812 5813 5813 5812 5812 5812 5811 5811 5811 5810 5809 5807 5806 5805 5803 5802 5800 5798 5796
5751 5754 5758 5761 5763 5764 5765 5773 5776 5779 5780 5782 5784 5785 5787 5790 5791 5794 5798 5799 5801 5802 5803 5804 5804 5804 5803 5805 5805 5804 5804 5802 5801 5801 5800 5799 5798 5796 5795 5792 5790 5788 5786
5742 5743 5748 5751 5755 5757 5759 5760 5766 5768 5770 5773 5775 5776 5777 5779 5782 5783 5786 5789 5792 5793 5794 5794 5795 5795 5795 5795 5795 5795 5794 5793 5792 5791 5791 5790 5789 5787 5784 5781 5779 5777 5774
5731 5732 5736 5739 5744 5748 5750 5752 5754 5755 5756 5762 5764 5765 5767 5768 5771 5774 5775 5778 5781 5782 5783 5784 5785 5785 5785 5785 5784 5784 5784 5783 5783 5782 5781 5779 5777 5775 5773 5770 5767 5765 5762
5722 5723 5725 5728 5732 5736 5738 5740 5742 5745 5746 5747 5751 5752 5757 5758 5758 5762 5764 5766 5769 5772 5772 5773 5773 5774 5774 5775 5774 5774 5773 5773 5773 5772 5770 5768 5765 5763 5761 5758 5755 5752 5748
5713 5714 5716 5718 5721 5724 5726 5727 5729 5732 5734 5736 5739 5741 5744 5746 5748 5751 5751 5754 5756 5759 5760 5761 5762 5762 5763 5764 5765 5763 5763 5763 5763 5761 5758 5756 5754 5752 5748 5745 5741 5738 5734
5702 5703 5704 5707 5710 5712 5714 5715 5716 5718 5720 5725 5727 5731 5733 5734 5735 5736 5738 5739 5742 5745 5747 5749 5751 5752 5752 5753 5754 5754 5753 5752 5750 5749 5747 5744 5741 5738 5734 5730 5728 5723 5719
5691 5693 5694 5695 5698 5700 5701 5702 5704 5705 5707 5711 5714 5720 5722 5722 5726 5726 5727 5730 5731 5730 5732 5736 5739 5741 5741 5740 5741 5741 5741 5741 5738 5736 5735 5733 5727 5724 5721 5717 5712 5709 5705
5681 5683 5684 5686 5686 5688 5689 5691 5692 5694 5695 5698 5701 5706 5709 5712 5716 5716 5716 5717 5718 5717 5720 5723 5725 5725 5725 5725 5727 5727 5728 5728 5725 5724 5720 5717 5715 5711 5707 5702 5697 5692 5686
5670 5671 5673 5674 5675 5676 5675 5676 5678 5680 5683 5685 5688 5690 5694 5697 5700 5704 5705 5707 5709 5708 5711 5711 5714 5714 5714 5713 5713 5713 5713 5712 5711 5709 5707 5704 5700 5697 5693 5687 5681 5676 5671
5658 5659 5661 5662 5663 5664 5665 5666 5665 5667 5670 5673 5675 5679 5681 5683 5684 5686 5694 5698 5699 5700 5701 5700 5701 5700 5700 5701 5701 5700 5701 5701 5699 5697 5694 5691 5688 5683 5677 5672 5667 5662 5657
5646 5647 5648 5649 5650 5651 5652 5653 5655 5656 5657 5660 5662 5665 5671 5670 5672 5674 5678 5683 5688 5689 5689 5687 5689 5690 5689 5689 5689 5688 5689 5688 5686 5685 5681 5678 5673 5667 5663 5658 5654 5648 5644
5635 5634 5635 5636 5637 5637 5638 5639 5642 5644 5646 5648 5649 5653 5655 5659 5661 5663 5666 5669 5673 5677 5679 5678 5678 5679 5678 5677 5678 5677 5677 5676 5674 5672 5669 5665 5660 5655 5652 5647 5641 5636 5633
5622 5622 5623 5623 5624 5624 5625 5627 5630 5632 5635 5638 5640 5641 5644 5645 5648 5652 5655 5657 5660 5663 5667 5668 5669 5668 5668 5667 5666 5666 5664 5663 5661 5658 5656 5652 5647 5643 5639 5635 5629 5625 5621
5610 5610 5611 5611 5611 5612 5613 5615 5617 5620 5622 5626 5630 5633 5633 5636 5638 5641 5645 5646 5648 5650 5654 5656 5656 5656 5657 5657 5655 5653 5651 5650 5647 5646 5644 5640 5637 5633 5628 5622 5618 5614 5609
5599 5600 5600 5600 5600 5601 5601 5604 5606 5608 5611 5615 5619 5621 5624 5627 5629 5631 5633 5635 5637 5640 5643 5645 5645 5646 5645 5644 5643 5642 5641 5639 5637 5635 5633 5631 5627 5623 5617 5613 5608 5603 5597
5591 5591 5591 5589 5589 5588 5589 5591 5594 5596 5600 5604 5607 5611 5615 5617 5621 5621 5624 5625 5628 5630 5633 5635 5636 5636 5636 5635 5634 5632 5631 5629 5627 5626 5623 5621 5616 5613 5608 5603 5597 5592 5583
5583 5582 5581 5580 5577 5577 5578 5579 5583 5587 5591 5594 5597 5601 5607 5609 5612 5612 5616 5617 5620 5621 5624 5626 5625 5627 5627 5627 5626 5624 5622 5621 5619 5617 5613 5611 5607 5604 5597 5591 5585 5576 5567
5575 5574 5572 5570 5570 5569 5569 5571 5575 5578 5581 5585 5589 5593 5598 5600 5603 5607 5609 5611 5613 5614 5615 5616 5618 5617 5617 5617 5616 5615 5614 5613 5612 5607 5604 5602 5596 5590 5584 5578 5569 5561 5551
5566 5564 5563 5563 5563 5563 5564 5566 5569 5570 5574 5577 5581 5585 5589 5592 5596 5599 5602 5603 5603 5605 5606 5607 5608 5608 5609 5609 5609 5608 5606 5604 5601 5599 5597 5592 5586 5578 5572 5562 5554 5545 5533
5558 5555 5555 5556 5557 5558 5558 5561 5563 5566 5569 5573 5577 5580 5583 5586 5588 5589 5592 5594 5597 5598 5599 5601 5602 5602 5602 5602 5601 5599 5598 5597 5595 5592 5588 5583 5576 5567 5556 5547 5538 5528 5513
5550 5547 5547 5550 5553 5554 5555 5557 5560 5562 5566 5568 5570 5573 5576 5578 5581 5583 5586 5588 5589 5591 5593 5594 5595 5596 5595 5594 5594 5593 5593 5591 5587 5583 5579 5574 5567 5557 5542 5529 5519 5507 5490
5544 5542 5542 5544 5547 5549 5552 5553 5556 5559 5561 5563 5565 5567 5569 5573 5576 5578 5580 5583 5585 5587 5588 5589 5589 5589 5589 5588 5589 5588 5586 5584 5581 5577 5570 5562 5553 5545 5537 5515 5500 5489 5472